This demonstration page uses our WeatherBlox Daily Observations layout. Learn more.

Left ArrowRight Arrow

47.50024, -111.30081

Hourly Observations for January 10, 2018

Temp ( °F °C ) Dew Point ( °F °C ) Humidity (%) Winds ( mph kmh ) Pressure ( in mb ) Visibility ( mi km ) Precip ( " mm )
12:15 am 00:15 Cloudy with Light Snow 10 -12.2 6 -14.4 84 84 NNW 16 26 30.00 1016 2 3 0.01 0.25
12:25 am 00:25 Cloudy with Light Snow 10 -12.2 6 -14.4 84 84 NNW 15 24 30.00 1016 1 2 0.01 0.25
12:36 am 00:36 Cloudy with Light Snow 10 -12.2 6 -14.4 84 84 NNW 15 24 30.00 1016 1 1 0.02 0.51
12:53 am 00:53 Mostly Cloudy with Light Snow 9 -12.8 5 -15 84 84 NNW 15 24 29.81 1010 1 2 0.02 0.51
1:45 am 01:45 Cloudy with Light Snow 8 -13.3 4 -15.6 83 83 NNW 13 20 30.00 1016 1 2 0.01 0.25
1:53 am 01:53 Cloudy with Light Snow 8 -13.3 4 -15.6 83 83 NNW 12 19 29.83 1010 2 3 0.01 0.25
2:01 am 02:01 Cloudy with Light Snow 7 -13.9 3 -16.1 84 84 NNW 15 24 30.03 1017 2 2 0.00 0.03
2:30 am 02:30 Mostly Cloudy with Light Snow 6 -14.4 2 -16.7 83 83 NNW 13 20 30.03 1017 1 2 0.01 0.25
2:37 am 02:37 Cloudy with Light Snow 6 -14.4 2 -16.7 83 83 N 14 22 30.03 1017 1 2 0.01 0.25
2:45 am 02:45 Cloudy with Light Snow 6 -14.4 2 -16.7 83 83 N 13 20 30.03 1017 2 2 0.01 0.25
2:53 am 02:53 Cloudy with Light Snow 5 -15 1 -17.2 83 83 N 13 20 29.86 1011 2 2 0.01 0.25
3:02 am 03:02 Cloudy with Light Snow 5 -15 1 -17.2 83 83 N 14 22 30.03 1017 1 2 0.00 0.03
3:11 am 03:11 Cloudy with Light Snow 4 -15.6 0 -17.8 83 83 N 14 22 30.06 1018 2 2 0.00 0.03
3:22 am 03:22 Cloudy with Light Snow 4 -15.6 0 -17.8 83 83 N 12 19 30.09 1019 1 2 0.00 0.03
3:53 am 03:53 Cloudy with Light Snow 3 -16.1 -1 -18.3 83 83 N 14 22 29.90 1013 2 2 0.00 0.03
4:01 am 04:01 Cloudy with Light Snow 3 -16.1 -1 -18.3 83 83 N 15 24 30.09 1019 3 4 0.00 0.03
4:09 am 04:09 Cloudy with Light Snow 3 -16.1 -2 -18.9 79 79 N 14 22 30.09 1019 2 2 0.01 0.25
4:34 am 04:34 Cloudy with Light Snow 2 -16.7 -4 -20 76 76 N 15 24 30.15 1021 2 3 0.01 0.25
4:43 am 04:43 Cloudy with Light Snow 2 -16.7 -4 -20 76 76 NNW 16 26 30.15 1021 2 3 0.01 0.25
4:53 am 04:53 Cloudy with Light Snow 2 -16.7 -3 -19.4 80 80 NNW 15 24 29.95 1014 1 2 0.01 0.25
5:08 am 05:08 Cloudy with Light Snow 1 -17.2 -4 -20 79 79 NNW 13 20 30.15 1021 2 3 0.01 0.25
5:33 am 05:33 Cloudy with Light Snow 1 -17.2 -3 -19.4 83 83 N 12 19 30.18 1022 1 2 0.01 0.25
5:42 am 05:42 Cloudy with Light Snow 1 -17.2 -4 -20 79 79 N 12 19 30.18 1022 2 3 0.01 0.25
5:53 am 05:53 Cloudy with Light Snow 1 -17.2 -4 -20 79 79 N 10 17 29.95 1014 2 3 0.01 0.25
6:03 am 06:03 Cloudy with Light Snow 1 -17.2 -4 -20 79 79 N 8 13 30.18 1022 1 2 0.01 0.25
6:14 am 06:14 Cloudy with Light Snow 1 -17.2 -4 -20 79 79 N 7 11 30.18 1022 2 3 0.02 0.51
6:39 am 06:39 Cloudy with Light Snow 1 -17.2 -4 -20 79 79 NNW 6 9 30.21 1023 4 6 0.02 0.51
6:53 am 06:53 Cloudy with Haze 1 -17.2 -4 -20 79 79 NNW 6 9 29.98 1015 6 10 0.02 0.51
7:19 am 07:19 Cloudy 1 -17.2 -4 -20 79 79 WNW 7 11 30.21 1023 7 11 0.00 0.00
7:30 am 07:30 Cloudy 1 -17.2 -4 -20 79 79 NW 12 19 30.21 1023 9 14 0.00 0.00
7:53 am 07:53 Mostly Cloudy 0 -17.8 -6 -21.1 76 76 NW 8 13 30.06 1018 10 16 0.00 0.00
8:53 am 08:53 Cloudy -1 -18.3 -7 -21.7 75 75 NNW 5 7 30.11 1020 10 16 0.00 0.00
9:53 am 09:53 Cloudy 1 -17.2 -6 -21.1 72 72 N 8 13 30.14 1021 10 16 0.00 0.00
10:34 am 10:34 Cloudy 1 -17.2 -6 -21.1 72 72 NW 9 15 30.33 1027 10 16 0.00 0.00
10:53 am 10:53 Cloudy 0 -17.8 -8 -22.2 69 69 NNW 13 20 30.18 1022 10 16 0.00 0.00
11:53 am 11:53 Cloudy -1 -18.3 -10 -23.3 65 65 NNW 10 17 30.20 1023 10 16 0.00 0.00
12:53 pm 12:53 Cloudy -1 -18.3 -9 -22.8 68 68 NNW 8 13 30.20 1023 10 16 0.00 0.00
1:53 pm 13:53 Partly Cloudy 0 -17.8 -8 -22.2 69 69 NW 6 9 30.21 1023 10 16 0.00 0.00
2:53 pm 14:53 Cloudy 1 -17.2 -8 -22.2 65 65 NNW 5 7 30.22 1023 10 16 0.00 0.00
3:53 pm 15:53 Cloudy 0 -17.8 -8 -22.2 69 69 N 7 11 30.24 1024 10 16 0.00 0.00
4:53 pm 16:53 Cloudy -1 -18.3 -9 -22.8 68 68 NNE 6 9 30.27 1025 10 16 0.00 0.00
5:53 pm 17:53 Cloudy -1 -18.3 -8 -22.2 72 72 N 6 9 30.29 1026 10 16 0.00 0.00
6:34 pm 18:34 Cloudy -1 -18.3 -9 -22.8 68 68 NNE 5 7 30.42 1030 10 16 0.00 0.00
6:53 pm 18:53 Cloudy -1 -18.3 -9 -22.8 68 68 NNE 6 9 30.30 1026 10 16 0.00 0.00
7:53 pm 19:53 Cloudy -1 -18.3 -8 -22.2 72 72 Calm 30.30 1026 10 16 0.00 0.00
8:53 pm 20:53 Cloudy -1 -18.3 -7 -21.7 75 75 E 6 9 30.30 1026 10 16 0.00 0.00
9:53 pm 21:53 Cloudy -1 -18.3 -8 -22.2 72 72 NE 8 13 30.31 1026 10 16 0.00 0.00
10:53 pm 22:53 Cloudy -1 -18.3 -8 -22.2 72 72 NNE 8 13 30.33 1027 10 16 0.00 0.03
11:53 pm 23:53 Cloudy with Light Snow -2 -18.9 -9 -22.8 72 72 NNE 8 13 30.37 1028 9 14 0.00 0.03

Powered by AerisWeather